User: anonymous   Login
Location: Unspecified
(0.0000°N, 0.0000°E)
Time: 19:41:06
(UTC+00:00)
Language:

COSMOS 2483 - Orbit

View from above orbital plane
View from above orbital plane
View from above satellite
View from above satellite

Ground track
Ground track

The orbit data is extracted from the following two-line orbital elements,

1 39058U 13001B   21026.25629240  .00000029  00000-0  13907-3 0  9995
2 39058  82.5017   1.3272 0016864 359.0358   1.0690 12.43961245364605
Epoch (UTC): 26 January 2021 06:09:03
Eccentricity: 0.0016864
inclination: 82.5017°
perigee height: 1476 km
apogee height: 1503 km
right ascension of ascending node: 1.3272°
argument of perigee: 359.0358°
revolutions per day: 12.43961245
mean anomaly at epoch: 1.0690°
orbit number at epoch: 36460

The dashed part of the orbit path shows where the satellite is in the earth's shadow,  

DLR